SCP
0 0 0 0 0 0 0 0 0 0 0 0 0 0 0 0 0 0 0 0 0 0 0 0 0 0 0 0 0 0 0 0 0 0 0 0 0 0 0 0 0 0 0
0 0 0 0 0 0 0 0 0 0 0 0 0 0 0 0 0 0 0 0 0 0 0 0 0 0 0 0 0 0 0 0 0 0 0 0 0 0 0 0 0 0 0
0 0 0 0 0 0 0 0 0 0 0 0 0 0 0 0 0 0 0 0 0 0 0 0 0 0 0 0 0 0 0 0 0 0 0 0 0 0 0 0 0 0 0
0 0 0 0 0 0 0 0 0 0 0 0 0 0 0 0 0 0 0 0 0 0 0 0 0 0 0 0 0 0 0 0 0 0 0 0 0 0 0 0 0 0 0
0 0 0 0 0 0 0 0 0 0 0 0 0 0 0 0 0 0 0 0 0 0 0 0 0 0 0 0 0 0 0 0 0 0 0 0 0 0 0 0 0 0 0
0 0 0 0 0 0 0 0 0 0 0 0 0 0 0 0 0 0 0 0 0 0 0 0 0 0 0 0 0 0 0 0 0 0 0 0 0 0 0 0 0 0 0
0 0 0 0 0 0 0 0 0 0 0 0 0 0 0 0 0 0 0 0 0 0 0 0 0 0 0 0 0 0 0 0 0 0 0 0 0 0 0 0 0 0 0
0 0 0 0 0 0 0 0 0 0 0 0 0 0 0 0 0 0 0 0 0 0 0 0 0 0 0 0 0 0 0 0 0 0 0 0 0 0 0 0 0 0 0
0 0 0 0 0 0 0 0 0 0 0 0 0 0 0 0 0 0 0 0 0 0 0 0 0 0 0 0 0 0 0 0 0 0 0 0 0 0 0 0 0 0 0
0 0 0 0 0 0 0 0 0 0 0 0 0 0 0 0 0 0 0 0 0 0 0 0 0 0 0 0 0 0 0 0 0 0 0 0 0 0 0 0 0 0 0
0 0 0 0 0 0 0 0 0 0 0 0 0 0 0 0 0 0 0 0 0 0 0 0 0 0 0 0 0 0 0 0 0 0 0 0 0 0 0 0 0 0 0
0 0 0 0 0 0 0 0 0 0 0 0 0 0 0 0 0 0 0 0 0 0 0 0 0 0 0 0 0 0 0 0 0 0 0 0 0 0 0 0 0 0 0
0 0 0 0 0 0 0 0 0 0 0 0 0 0 0 0 0 0 0 0 0 0 0 0 0 0 0 0 0 0 0 0 0 0 0 0 0 0 0 0 0 0 0
0 0 0 0 0 0 0 0 0 0 0 0 0 0 0 0 0 0 0 0 0 0 0 0 0 0 0 0 0 0 0 0 0 0 0 0 0 0 0 0 0 0 0
0 0 0 0 0 0 0 0 0 0 0 0 0 0 0 0 0 0 0 0 0 0 0 0 0 0 0 0 0 0 0 0 0 0 0 0 0 0 0 0 0 0 0
0 0 0 0 0 0 0 0 0 0 0 0 0 0 0 0 0 0 0 0 0 0 0 0 0 0 0 0 0 0 0 0 0 0 0 0 0 0 0 0 0 0 0
0 0 0 0 0 0 0 0 0 0 0 0 0 0 0 0 0 0 0 0 0 0 0 0 0 0 0 0 0 0 0 0 0 0 0 0 0 0 0 0 0 0 0
0 0 0 0 0 0 0 0 0 0 0 0 0 0 0 0 0 0 0 0 0 0 0 0 0 0 0 0 0 0 0 0 0 0 0 0 0 0 0 0 0 0 0
0 0 0 0 0 0 0 0 0 0 0 0 0 0 0 0 0 0 0 0 0 0 0 0 0 0 0 0 0 0 0 0 0 0 0 0 0 0 0 0 0 0 0
0 0 0 0 0 0 0 0 0 0 0 0 0 0 0 0 0 0 0 0 0 0 0 0 0 0 0 0 0 0 0 0 0 0 0 0 0 0 0 0 0 0 0
0 0 0 0 0 0 0 0 0 0 0 0 0 0 0 0 0 0 0 0 0 0 0 0 0 0 0 0 0 0 0 0 0 0 0 0 0 0 0 0 0 0 0
0 0 0 0 0 0 0 0 0 0 0 0 0 0 0 0 0 0 0 0 0 0 0 0 0 0 0 0 0 0 0 0 0 0 0 0 0 0 0 0 0 0 0
0 0 0 0 0 0 0 0 0 0 0 0 0 0 0 0 0 0 0 0 0 0 0 0 0 0 0 0 0 0 0 0 0 0 0 0 0 0 -0 -0 0 0 0
0 0 0 0 0 0 0 0 0 0 0 0 0 0 0 0 0 0 0 0 0 0 0 0 0 0 0 0 0 0 0 0 0 0 0 0 0 0 -0 -0 -0 -0 -0
0 0 0 0 0 0 0 0 0 0 0 0 0 0 0 0 0 0 0 0 0 0 0 0 0 0 0 0 0 0 0 0 0 0 0 0 0 0 0 -0 -0 -0 -0
0 0 0 0 0 0 0 0 0 0 0 0 0 0 0 0 0 0 0 0 0 0 0 0 0 0 0 0 0 0 0 0 0 0 0 0 0 0 0 -0 -0 -0 -0
Wind_Speed
14 13 13 12 10 11 11 11 11 9 10 10 10 9 8 7 6 6 5 5 5 4 3 3 3 2 2 1 1 1 2 2 6 7 4 4 6 8 11 8 9 10 10
13 13 14 13 12 12 12 11 11 11 10 10 9 9 8 7 7 7 6 6 5 5 4 4 3 3 3 3 2 3 3 4 4 10 8 6 7 9 10 11 10 10 9
13 14 14 14 14 14 13 12 11 11 10 9 9 9 9 8 7 7 6 6 6 5 5 5 4 4 4 3 4 4 3 4 4 7 10 7 7 7 11 11 10 8 11
14 15 16 16 15 14 13 12 12 11 11 10 9 8 8 8 8 7 7 6 5 5 5 5 5 5 5 5 4 5 4 5 5 7 9 9 9 8 8 10 12 8 10
16 16 16 13 12 12 12 12 11 11 11 10 9 8 7 7 7 8 7 6 6 5 5 5 6 7 9 7 6 5 5 5 5 6 9 9 9 9 9 10 12 13 11
17 16 13 13 13 13 13 12 12 11 9 9 9 9 9 8 12 15 10 7 6 6 6 6 6 7 10 13 14 13 10 7 5 5 8 10 11 10 10 11 12 14 13
15 13 13 14 14 13 12 12 13 12 10 10 9 9 10 11 16 16 16 8 7 7 7 6 6 5 7 6 10 14 13 15 14 9 10 11 11 11 13 14 13 14 15
14 14 14 14 14 12 12 13 12 9 10 10 10 10 9 11 17 16 15 9 7 7 7 7 7 7 7 8 8 8 9 9 11 9 8 9 10 11 11 12 12 12 14
16 16 15 15 14 14 14 13 10 9 10 10 8 9 10 10 16 16 15 5 6 8 8 8 8 8 13 15 10 8 9 9 12 15 15 15 18 19 16 8 6 7 11
18 16 14 14 15 15 15 12 8 9 10 9 8 8 9 9 13 15 15 5 6 7 6 8 11 13 15 16 10 8 9 9 6 6 7 10 10 11 14 8 6 7 8
13 12 13 14 14 13 11 9 8 8 7 7 7 6 7 8 11 15 16 7 7 6 6 7 8 15 18 18 16 10 12 10 4 3 3 4 5 6 6 7 7 7 8
12 13 13 12 11 9 10 9 9 9 8 8 6 5 5 5 8 11 16 16 12 7 8 7 8 15 17 18 14 14 16 10 1 1 2 4 5 5 6 7 9 10 10
12 12 10 10 9 9 10 10 8 8 7 7 6 7 5 4 6 12 14 16 17 10 7 12 14 17 16 13 15 16 9 2 2 2 4 5 5 6 7 7 9 9 11
12 10 9 9 8 7 6 7 8 8 8 7 7 6 5 4 4 4 5 6 10 10 7 8 14 17 15 11 7 8 3 3 3 4 4 4 4 5 5 6 7 8 9
9 8 8 7 8 7 5 5 7 5 7 8 6 5 5 5 7 10 6 6 5 7 5 3 3 4 5 4 3 3 3 3 4 3 3 4 4 5 6 5 5 6 6
8 7 6 6 5 6 6 3 5 6 8 9 9 7 5 7 8 10 11 12 12 12 7 4 5 5 6 6 6 5 5 5 5 4 3 4 4 5 6 5 6 6 8
8 7 6 6 6 6 6 7 5 3 5 6 6 6 6 5 6 6 7 7 7 6 4 4 5 5 6 6 6 6 5 5 4 4 4 3 3 4 4 6 6 6 7
6 7 6 6 6 6 6 5 5 6 5 2 1 2 3 3 3 4 5 2 2 2 2 3 4 4 4 5 5 5 5 4 3 3 3 3 3 3 4 5 5 6 7
6 5 5 5 5 5 5 5 4 5 4 3 1 1 1 1 1 2 2 1 1 2 3 3 3 4 4 4 4 4 4 4 4 3 3 3 3 3 4 5 5 8 7
4 6 6 5 5 5 5 5 5 5 4 4 3 2 1 1 1 1 1 0 1 2 3 3 4 4 4 4 4 4 4 4 4 4 4 3 3 3 5 6 5 6 6
4 5 6 5 5 5 5 5 5 5 4 4 3 4 6 3 2 2 2 2 3 3 3 4 4 4 4 4 4 4 5 4 4 4 4 3 3 3 4 4 5 6 6
4 4 4 4 4 4 4 4 4 4 4 4 3 2 4 2 2 2 3 3 4 4 4 4 4 4 4 4 4 4 5 5 5 4 4 4 4 4 4 4 5 5 6
4 5 4 4 4 5 5 4 4 4 4 3 3 2 1 2 2 3 4 4 4 4 4 4 4 4 4 4 4 4 5 5 5 4 4 4 4 4 4 4 5 5 6
4 5 5 4 4 4 4 4 3 3 3 3 3 3 3 3 3 4 4 4 4 4 4 4 5 7 8 6 4 4 5 6 5 5 6 6 5 5 4 5 6 6 7
4 4 4 4 4 3 3 3 3 3 3 3 3 3 3 3 4 4 4 4 5 5 6 6 5 6 8 8 7 6 8 11 8 5 5 6 6 6 6 6 6 6 7
3 3 3 3 3 3 3 3 3 3 3 3 3 4 4 4 4 4 4 4 5 5 6 5 6 8 8 7 9 10 11 12 12 11 7 6 7 7 6 6 7 7 8
Wind_Direction
172 169 165 167 163 160 162 163 160 155 155 156 155 151 147 144 142 140 144 148 148 154 162 167 180 177 179 191 201 213 221 219 268 285 275 304 303 310 314 307 305 302 306
172 169 168 167 165 166 167 166 162 160 162 160 157 155 154 155 156 158 162 168 172 181 191 193 207 202 209 212 213 224 228 226 251 287 298 306 303 308 306 307 307 307 303
171 169 169 171 171 173 171 167 166 164 163 162 163 164 165 166 168 173 175 181 189 197 200 207 215 213 227 222 223 230 233 247 242 274 291 299 301 304 307 304 299 294 300
174 174 177 179 177 174 170 169 170 169 168 171 174 172 171 171 175 180 185 192 200 208 212 218 220 219 229 230 235 233 235 244 250 268 284 296 300 302 301 311 313 309 306
178 182 183 177 172 168 170 171 171 173 176 174 172 173 174 177 186 187 192 196 204 216 223 227 230 233 239 239 241 233 231 240 250 268 285 294 299 311 314 314 310 311 302
184 185 177 172 172 174 174 172 173 176 174 173 180 180 185 195 203 203 198 202 209 218 229 231 235 238 250 258 262 262 254 246 242 255 282 289 298 306 310 310 310 311 310
184 178 174 175 178 179 175 175 180 180 176 182 187 188 197 208 208 211 211 202 210 219 225 231 240 236 231 244 261 268 271 271 268 269 279 286 296 304 307 307 308 307 303
180 179 177 177 180 176 177 184 184 178 183 189 193 196 203 216 217 219 220 212 213 222 225 227 238 244 237 241 245 250 249 253 260 268 270 280 288 296 298 303 307 304 297
184 185 182 180 179 179 186 189 184 179 187 194 192 196 206 221 222 225 224 210 224 232 229 228 234 242 252 257 254 249 255 256 266 270 276 287 296 305 309 308 307 306 303
190 186 180 179 182 187 191 187 180 184 192 191 199 201 207 218 224 227 228 212 229 238 237 238 239 244 253 256 250 244 253 256 250 263 281 295 302 303 305 301 293 293 299
176 171 175 182 187 188 183 177 174 180 181 190 202 205 208 215 228 231 231 218 223 235 240 242 242 254 258 260 255 244 249 256 227 231 262 284 291 290 291 291 291 290 290
161 171 177 181 181 176 174 175 174 177 185 195 200 213 215 210 216 232 237 238 235 227 239 242 244 256 260 261 261 259 265 265 182 221 274 284 286 287 291 296 296 291 284
160 170 171 170 173 171 174 174 171 176 188 195 199 217 219 202 225 235 241 245 248 244 244 251 256 260 263 263 263 264 266 227 199 244 264 275 278 286 296 298 297 293 288
157 160 160 163 164 162 167 169 174 181 189 193 199 212 213 203 208 217 230 248 254 257 263 266 269 268 265 257 253 261 242 204 211 236 255 270 285 290 290 295 300 308 305
144 146 149 153 156 157 159 174 178 185 188 190 197 192 194 215 221 220 213 216 220 233 245 250 249 253 251 250 245 237 229 221 227 234 246 265 280 288 292 300 296 303 295
139 145 148 147 147 149 148 137 187 179 196 203 193 188 205 219 231 238 246 249 250 249 243 241 244 243 245 245 242 240 231 230 229 229 232 247 268 282 293 297 296 294 296
147 151 148 150 154 158 160 163 163 175 190 197 202 203 203 218 239 252 262 271 271 270 251 254 255 254 254 248 241 237 236 230 220 222 233 242 258 273 284 291 295 296 297
137 146 151 156 159 161 165 165 163 166 170 182 229 217 213 226 247 260 271 281 289 283 257 264 268 273 271 263 251 242 240 229 220 223 228 237 245 260 273 280 285 289 297
140 144 145 143 145 146 146 147 150 157 158 152 120 34 20 355 2 329 21 132 225 255 263 267 269 272 270 266 260 251 241 234 229 222 228 235 237 244 260 269 279 288 293
133 141 139 140 139 141 144 148 152 154 155 158 171 180 130 89 98 335 8 275 254 262 267 268 269 267 265 261 257 249 242 238 234 230 232 234 234 237 256 268 275 284 288
125 131 132 130 139 145 147 151 152 153 159 165 180 200 192 171 192 214 237 251 251 257 262 265 266 266 261 257 252 246 241 242 236 233 232 233 232 240 248 259 271 275 280
116 120 125 131 130 132 135 137 142 149 158 166 171 223 222 154 185 219 239 249 249 247 250 254 258 253 247 245 242 240 241 243 240 233 231 232 232 239 248 258 267 277 280
111 115 114 114 119 127 127 131 142 152 161 172 178 191 213 211 222 233 244 251 254 257 256 251 256 259 253 245 237 233 239 244 238 221 222 230 233 235 238 251 262 272 277
114 122 127 129 129 135 142 148 157 165 173 183 196 211 222 228 234 244 248 252 256 258 256 251 251 256 260 255 242 235 239 246 238 224 220 226 234 236 235 245 255 261 271
112 121 130 138 143 146 152 162 175 183 193 204 214 224 232 237 243 248 249 251 257 259 261 257 252 255 258 257 253 247 252 260 254 224 208 215 230 233 235 244 252 261 264
113 122 129 137 149 159 172 186 196 204 213 220 225 230 236 242 248 251 252 253 256 258 261 257 254 257 259 259 259 261 258 255 246 232 212 213 222 231 229 238 246 253 262